Left ArrowRight Arrow

38.83388, -104.82136

Hourly Observations for June 21, 2024

Temp ( °F °C ) Dew Point ( °F °C ) Humidity (%) Winds ( mph kmh ) Pressure ( in mb ) Visibility ( mi km ) Precip ( " mm )
12:55 am 00:55 Mostly Cloudy 69 20.5 47 8.2 45 45 NNW 10 17 29.65 1004 10 16 0.00 0.00
1:55 am 01:55 Clear 66 19.1 47 8.4 50 50 NNW 6 9 29.67 1005 10 16 0.00 0.00
2:55 am 02:55 Partly Cloudy 65 18.1 47 8.4 53 53 Calm 29.65 1004 10 16 0.00 0.00
3:55 am 03:55 Mostly Cloudy 65 18.3 46 8 51 51 NNE 3 6 29.63 1004 10 16 0.00 0.00
4:55 am 04:55 Cloudy 69 20.6 43 6.2 39 39 ENE 8 13 29.61 1003 10 16 0.00 0.00
5:42 am 05:42 Mostly Cloudy 68 20 45 7 43 43 NW 13 20 29.63 1003 10 16 0.00 0.00
5:55 am 05:55 Cloudy 68 20 43 6 40 40 NW 16 26 29.63 1003 10 16 0.00 0.00
6:15 am 06:15 Cloudy 66 19 43 6 43 43 ESE 15 24 29.62 1003 10 16 0.00 0.00
6:55 am 06:55 Cloudy 67 19.3 46 7.7 47 47 NW 15 24 29.64 1004 10 16 0.00 0.00
7:08 am 07:08 Cloudy 66 19 45 7 46 46 W 18 30 29.63 1003 10 16 0.00 0.00
7:55 am 07:55 Cloudy 72 22.2 40 4.7 32 32 W 3 6 29.60 1002 10 16 0.00 0.00
8:55 am 08:55 Cloudy 68 19.9 49 9.5 51 51 NNW 8 13 29.59 1002 10 16 0.00 0.00
9:55 am 09:55 Partly Cloudy 73 22.9 47 8.6 40 40 N 12 19 29.60 1002 10 16 0.00 0.00
10:55 am 10:55 Sunny 75 24 49 9.2 39 39 NE 6 9 29.61 1003 10 16 0.00 0.00
11:55 am 11:55 Sunny 80 26.6 49 9.4 34 34 SE 6 9 29.60 1002 9 14 0.00 0.00
12:55 pm 12:55 Sunny 81 27.3 48 8.7 31 31 E 6 9 29.58 1002 10 16 0.00 0.00
1:55 pm 13:55 Mostly Sunny 84 28.7 48 8.9 29 29 Calm 29.57 1001 10 16 0.00 0.00
2:16 pm 14:16 Mostly Cloudy with Rain 81 27 46 8 30 30 NW 15 24 29.62 1003 9 14 0.00 0.00
2:32 pm 14:32 Mostly Cloudy 70 21 50 10 49 49 WNW 24 39 29.62 1003 10 16 0.00 0.00
2:55 pm 14:55 Partly Cloudy 76 24.2 44 6.4 32 32 NE 10 17 29.60 1003 10 16 0.01 0.25
3:55 pm 15:55 Partly Cloudy 81 27.3 47 8.2 30 30 Calm 29.59 1002 10 16 0.00 0.00
4:55 pm 16:55 Partly Cloudy 80 26.5 45 7 29 29 SSE 9 15 29.54 1000 10 16 0.00 0.00
5:55 pm 17:55 Mostly Cloudy 79 26 45 7.1 30 30 WNW 14 22 29.54 1001 10 16 0.00 0.00
6:55 pm 18:55 Cloudy 77 25.2 45 7.3 32 32 SSW 5 7 29.57 1001 10 16 0.00 0.00
7:55 pm 19:55 Cloudy 76 24.5 46 7.6 34 34 W 10 17 29.55 1001 10 16 0.00 0.00
8:55 pm 20:55 Cloudy 76 24.6 47 8.1 35 35 WSW 7 11 29.60 1002 10 16 0.00 0.00
9:55 pm 21:55 Cloudy 74 23.1 47 8.4 39 39 WSW 8 13 29.63 1003 10 16 0.00 0.00
10:42 pm 22:42 Cloudy 72 22 45 7 38 38 W 15 24 29.60 1002 10 16 0.00 0.00
10:55 pm 22:55 Cloudy 73 22.7 43 6 34 34 WNW 17 28 29.60 1002 10 16 0.00 0.00
11:55 pm 23:55 Cloudy 72 22.2 44 6.4 36 36 WNW 7 11 29.62 1003 10 16 0.00 0.00

Powered by Vaisala Xweather